Location: Banios
(43.0451°N, 0.2335°E)
Time: 13:53:52
(UTC+00:00)

Cosmos 1464 Rocket - Pass Details

Date: 25 January 2021
Orbit: 953 x 1000 km, 82.9° (Epoch: 25 February)

Event Time Altitude Azimuth Distance (km) Brightness Sun altitude
Rises 04:59:07 0° 193° (SSW) 3,614 6.9 -25.8°
Reaches altitude 10° 05:01:37 10° 196° (SSW) 2,673 6.2 -25.4°
Maximum altitude 05:07:42 70° 279° (W) 1,017 3.8 -24.3°
Drops below altitude 10° 05:13:51 10° 3° (N) 2,704 6.3 -23.1°
Sets 05:16:24 0° 6° (N) 3,659 7.0 -22.7°
